Tracking 23762 objects as of 21-Oct-2021
HD Live streaming from Space Station
objects crossing your sky now

COSMOS 397 DEB

Track COSMOS 397 DEB now!
10-day predictions


NORAD ID: 5017
Int'l Code: 1971-015L
Perigee: 558.2 km
Apogee: 1,702.7 km
Inclination: 65.7 °
Period: 107.8 minutes
Semi major axis: 7501 km
RCS: 0.3524 m2 (medium)
Launch date: February 25, 1971
Source: Commonwealth of Independent States (former USSR) (CIS)
Launch site: TYURATAM MISSILE AND SPACE COMPLEX (TTMTR)

Note: This is SATELLITE DEBRIS
aabbcc
Your satellite tracking list
Your tracking list is empty




NASA's NSSDC Master Catalog

Two Line Element Set (TLE):
1 05017U 71015L   21293.91130164  .00000505  00000-0  20716-3 0  9998
2 05017  65.7104 154.4458 0762838 169.7315 192.0372 13.36245701411467
Source of the keplerian elements: AFSPC